TimeEDT,TemperatureF,Dew PointF,Humidity,Sea Level PressureIn,VisibilityMPH,Wind Direction,Wind SpeedMPH,Gust SpeedMPH,PrecipitationIn,Events,Conditions,WindDirDegrees,DateUTC
12:15 AM,35.2,34.7,98,29.79,2.0,East,4.6,-,N/A,Snow,Light Snow,90,2013-03-16 04:15:00
12:34 AM,35.1,34.3,97,29.79,2.5,East,5.8,-,N/A,Snow,Light Snow,90,2013-03-16 04:34:00
12:55 AM,35.1,34.3,97,29.78,2.5,East,5.8,-,N/A,Snow,Light Snow,80,2013-03-16 04:55:00
1:14 AM,34.9,34.2,97,29.78,2.5,East,5.8,-,N/A,Snow,Light Snow,90,2013-03-16 05:14:00
1:35 AM,34.3,33.8,98,29.78,2.5,East,5.8,-,N/A,Snow,Light Snow,100,2013-03-16 05:35:00
1:55 AM,34.2,33.6,98,29.76,2.5,East,6.9,-,N/A,Snow,Light Snow,90,2013-03-16 05:55:00
2:14 AM,34.0,33.3,97,29.74,3.0,East,10.4,-,N/A,Snow,Light Snow,90,2013-03-16 06:14:00
2:35 AM,34.0,33.3,97,29.74,4.0,East,9.2,-,N/A,,Overcast,90,2013-03-16 06:35:00
2:55 AM,34.0,33.3,97,29.73,5.0,East,9.2,17.3,N/A,,Overcast,90,2013-03-16 06:55:00
3:14 AM,34.0,33.3,97,29.72,5.0,East,9.2,19.6,N/A,,Overcast,80,2013-03-16 07:14:00
3:35 AM,33.8,33.3,98,29.73,3.0,East,10.4,-,N/A,,Overcast,80,2013-03-16 07:35:00
3:54 AM,33.6,33.1,98,29.72,2.5,East,10.4,-,N/A,Snow,Snow,90,2013-03-16 07:54:00
4:14 AM,33.6,33.3,99,29.70,2.5,East,13.8,-,N/A,Snow,Light Snow,100,2013-03-16 08:14:00
4:35 AM,33.6,33.1,98,29.73,4.0,East,6.9,-,N/A,,Overcast,80,2013-03-16 08:35:00
4:54 AM,33.6,33.1,98,29.72,4.0,East,10.4,-,N/A,Snow,Light Snow,90,2013-03-16 08:54:00
5:14 AM,33.3,32.7,98,29.70,5.0,East,11.5,-,N/A,Snow,Light Snow,80,2013-03-16 09:14:00
5:35 AM,32.7,32.0,97,29.69,10.0,East,15.0,21.9,N/A,Snow,Light Snow,80,2013-03-16 09:35:00
6:15 AM,31.5,30.4,96,29.69,10.0,East,13.8,-,N/A,,Overcast,90,2013-03-16 10:15:00
6:35 AM,31.5,30.4,96,29.69,10.0,East,10.4,-,N/A,,Overcast,80,2013-03-16 10:35:00
6:54 AM,30.6,29.3,95,29.70,10.0,East,13.8,-,N/A,,Overcast,80,2013-03-16 10:54:00
7:15 AM,30.4,28.9,94,29.72,10.0,East,11.5,-,N/A,Snow,Light Snow,80,2013-03-16 11:15:00
7:35 AM,30.4,28.9,94,29.71,10.0,East,13.8,-,N/A,,Overcast,80,2013-03-16 11:35:00
7:54 AM,29.8,28.6,95,29.71,7.0,ENE,10.4,-,N/A,,Overcast,70,2013-03-16 11:54:00
8:15 AM,29.7,28.2,94,29.71,10.0,ENE,11.5,16.1,N/A,,Overcast,70,2013-03-16 12:15:00
8:35 AM,29.8,28.2,94,29.71,7.0,East,11.5,-,N/A,,Overcast,80,2013-03-16 12:35:00
8:54 AM,29.8,28.2,94,29.71,10.0,ENE,11.5,-,N/A,,Overcast,70,2013-03-16 12:54:00
9:15 AM,29.8,28.0,93,29.71,10.0,East,11.5,-,N/A,,Overcast,90,2013-03-16 13:15:00
9:34 AM,29.7,27.9,93,29.72,10.0,ENE,10.4,-,N/A,,Overcast,70,2013-03-16 13:34:00
9:54 AM,29.7,27.7,92,29.73,10.0,ENE,9.2,-,N/A,,Overcast,70,2013-03-16 13:54:00
10:15 AM,29.7,27.9,93,29.74,7.0,NNE,8.1,-,N/A,,Overcast,30,2013-03-16 14:15:00
10:34 AM,29.5,27.9,94,29.74,7.0,NNE,9.2,-,N/A,,Overcast,30,2013-03-16 14:34:00
10:55 AM,29.7,28.0,94,29.74,4.0,NE,6.9,-,N/A,,Overcast,50,2013-03-16 14:55:00
11:15 AM,29.1,27.7,94,29.74,4.0,NE,11.5,-,N/A,,Overcast,40,2013-03-16 15:15:00
11:34 AM,29.1,27.7,94,29.76,10.0,NNE,8.1,-,N/A,,Overcast,30,2013-03-16 15:34:00
11:55 AM,29.1,27.3,93,29.78,10.0,NE,5.8,16.1,N/A,,Overcast,40,2013-03-16 15:55:00
12:15 PM,29.5,27.7,93,29.79,10.0,North,6.9,-,N/A,,Overcast,10,2013-03-16 16:15:00
12:34 PM,29.5,27.5,92,29.80,10.0,NNE,6.9,-,N/A,,Overcast,30,2013-03-16 16:34:00
12:55 PM,29.5,27.5,92,29.81,7.0,North,9.2,-,N/A,,Overcast,350,2013-03-16 16:55:00
1:14 PM,28.6,27.1,94,29.82,4.0,North,11.5,-,N/A,,Overcast,360,2013-03-16 17:14:00
1:34 PM,28.6,27.1,94,29.83,3.0,North,11.5,16.1,N/A,,Overcast,10,2013-03-16 17:34:00
1:55 PM,28.6,27.1,94,29.84,7.0,North,9.2,-,N/A,,Overcast,350,2013-03-16 17:55:00
2:14 PM,28.6,27.0,94,29.85,10.0,North,10.4,-,N/A,,Overcast,360,2013-03-16 18:14:00
2:35 PM,28.8,27.3,94,29.85,10.0,North,9.2,-,N/A,,Overcast,10,2013-03-16 18:35:00
2:55 PM,28.8,27.0,93,29.86,10.0,North,11.5,-,N/A,,Overcast,10,2013-03-16 18:55:00
3:14 PM,29.3,27.1,92,29.86,10.0,NNW,10.4,-,N/A,,Overcast,340,2013-03-16 19:14:00
3:35 PM,29.7,27.5,92,29.87,10.0,North,9.2,-,N/A,,Overcast,350,2013-03-16 19:35:00
3:54 PM,29.8,27.5,91,29.87,10.0,North,6.9,-,N/A,,Overcast,360,2013-03-16 19:54:00
4:15 PM,29.5,27.7,93,29.88,10.0,NNW,8.1,-,N/A,,Overcast,340,2013-03-16 20:15:00
4:35 PM,29.7,27.3,91,29.89,10.0,NNW,6.9,-,N/A,,Overcast,330,2013-03-16 20:35:00
4:54 PM,29.7,27.5,92,29.90,10.0,NNW,6.9,-,N/A,,Overcast,340,2013-03-16 20:54:00
5:15 PM,29.7,27.3,91,29.90,10.0,North,6.9,-,N/A,,Overcast,350,2013-03-16 21:15:00
5:34 PM,29.8,27.9,92,29.91,10.0,NNW,8.1,-,N/A,,Overcast,340,2013-03-16 21:34:00
5:55 PM,30.0,27.9,92,29.92,10.0,NNW,6.9,-,N/A,,Overcast,330,2013-03-16 21:55:00
6:15 PM,29.7,27.0,90,29.93,10.0,North,8.1,-,N/A,,Overcast,350,2013-03-16 22:15:00
6:34 PM,29.7,26.4,88,29.94,10.0,North,5.8,-,N/A,,Overcast,350,2013-03-16 22:34:00
6:55 PM,29.5,25.9,86,29.95,10.0,North,9.2,-,N/A,,Overcast,360,2013-03-16 22:55:00
7:15 PM,29.1,24.4,83,29.95,10.0,North,5.8,-,N/A,,Overcast,350,2013-03-16 23:15:00
7:34 PM,29.1,24.4,83,29.95,10.0,North,4.6,-,N/A,,Overcast,350,2013-03-16 23:34:00
7:55 PM,29.1,24.6,83,29.96,10.0,North,5.8,-,N/A,,Overcast,360,2013-03-16 23:55:00
8:14 PM,29.1,24.3,82,29.97,10.0,NNW,9.2,-,N/A,,Overcast,330,2013-03-17 00:14:00
8:34 PM,28.8,23.5,81,29.98,10.0,Calm,Calm,-,N/A,,Overcast,0,2013-03-17 00:34:00
8:55 PM,28.9,23.7,81,29.98,10.0,NNW,3.5,-,N/A,,Overcast,330,2013-03-17 00:55:00
9:14 PM,28.9,23.4,80,29.99,10.0,Calm,Calm,-,N/A,,Overcast,0,2013-03-17 01:14:00
9:34 PM,28.9,23.0,78,29.99,10.0,Calm,Calm,-,N/A,,Overcast,0,2013-03-17 01:34:00
9:55 PM,29.1,23.2,78,29.99,10.0,Calm,Calm,-,N/A,,Overcast,0,2013-03-17 01:55:00
10:14 PM,29.1,22.8,77,30.00,10.0,Calm,Calm,-,N/A,,Overcast,0,2013-03-17 02:14:00
10:34 PM,29.5,22.6,76,30.00,10.0,Calm,Calm,-,N/A,,Overcast,0,2013-03-17 02:34:00
10:54 PM,29.5,23.4,78,30.01,10.0,Calm,Calm,-,N/A,,Overcast,0,2013-03-17 02:54:00
11:14 PM,29.5,23.5,79,30.01,10.0,Calm,Calm,-,N/A,,Overcast,0,2013-03-17 03:14:00
11:35 PM,29.7,24.3,80,30.01,10.0,Calm,Calm,-,N/A,,Overcast,0,2013-03-17 03:35:00
11:54 PM,29.5,24.3,81,30.02,10.0,Calm,Calm,-,N/A,,Overcast,0,2013-03-17 03:54:00